Lille, France

2:15 AM CEST on April 21, 2018 (GMT +0200)
Lesquin

Weather History for LFQQ - April, 2013

Change the Weather History Date:

Monday, April 1, 2013

  Actual Average Record
Temperature  
Mean Temperature 38 °F -  
Max Temperature 45 °F 56 °F 69 °F (1999)
Min Temperature 30 °F 41 °F 30 °F (2013)
Degree Days  
Heating Degree Days 28    
Moisture  
Dew Point 21 °F    
Average Humidity 53    
Maximum Humidity 80    
Minimum Humidity 22    
Precipitation  
Precipitation 0.00 in - - ()
Sea Level Pressure  
Sea Level Pressure 29.81 in    
Wind  
Wind Speed 11 mph ()    
Max Wind Speed 23 mph    
Max Gust Speed 30 mph    
Visibility 4.7 miles    
Events      
Averages and records for this station are not official NWS values.
T = Trace of Precipitation, MM = Missing Value Source: Averaged Metar Reports

Daily Weather History Graph

Daily Weather History Graph

Search for Another Location

Airport or City:

Astronomy

Apr. 01, 2013 Rise Set
Actual Time 7:23 AM CEST 8:20 PM CEST
Civil Twilight 6:50 AM CEST 8:53 PM CEST
Nautical Twilight 6:10 AM CEST 9:33 PM CEST
Astronomical Twilight 5:28 AM CEST 10:16 PM CEST
Moon 1:40 AM CEST (4/1) 10:26 AM CEST (4/1)
Length of Visible Light 14h 02m
Length of Day
12h 56m
Waning Gibbous, 70% of the Moon is Illuminated
Apr 1
Waning Gibbous
Apr 3
Last Quarter
Apr 10
New
Apr 18
First Quarter
Apr 25
Full

Hourly Weather History & Observations

Time (CEST) Temp. Windchill Dew Point Humidity Pressure Visibility Wind Dir Wind Speed Gust Speed Precip Events Conditions
12:00 AM 33.8 °F 27.0 °F 24.8 °F 70% 29.89 in - ENE 8.1 mph - N/A   Clear
1:00 AM 33.8 °F 28.6 °F 24.8 °F 70% 29.89 in - ENE 5.8 mph - N/A   Clear
2:00 AM 33 °F - 24 °F 59% 29.89 in 6 mi ENE 8.1 mph - -   Mostly Cloudy
2:00 AM 32.0 °F 24.8 °F 24.8 °F 75% 29.86 in - ENE 8.1 mph - N/A   Clear
2:30 AM 32.0 °F 24.8 °F 24.8 °F 75% 29.86 in 3.7 mi ENE 8.1 mph - N/A   Unknown
3:00 AM 32.0 °F 24.2 °F 24.8 °F 75% 29.86 in 3.1 mi ENE 9.2 mph - N/A   Mist
3:30 AM 32.0 °F 25.6 °F 24.8 °F 75% 29.86 in 3.1 mi ENE 6.9 mph - N/A   Mist
4:00 AM 32.0 °F 24.2 °F 24.8 °F 75% 29.86 in - ENE 9.2 mph - N/A   Mist
4:30 AM 33.8 °F 25.8 °F 24.8 °F 70% 29.83 in - ENE 10.4 mph - N/A   Mist
5:00 AM 33.8 °F 25.8 °F 24.8 °F 70% 29.83 in 3.1 mi ENE 10.4 mph - N/A   Unknown
5:30 AM 32.0 °F 23.0 °F 24.8 °F 75% 29.83 in 2.5 mi ENE 11.5 mph - N/A   Mist
6:00 AM 32.0 °F 23.0 °F 24.8 °F 75% 29.83 in 2.5 mi ENE 11.5 mph - N/A   Mist
6:30 AM 32.0 °F 23.0 °F 24.8 °F 75% 29.83 in 2.5 mi ENE 11.5 mph - N/A   Mist
7:00 AM 32.0 °F 23.0 °F 24.8 °F 75% 29.83 in 2.5 mi ENE 11.5 mph - N/A   Mist
7:30 AM 32.0 °F 23.0 °F 24.8 °F 75% 29.83 in 2.5 mi ENE 11.5 mph - N/A   Mist
8:00 AM 31 °F - 24 °F 66% 29.85 in 2 mi ENE 11.5 mph - -   Mist
8:00 AM 30.2 °F 20.8 °F 24.8 °F 80% 29.83 in 2.5 mi ENE 11.5 mph - N/A   Mist
8:30 AM 30.2 °F 20.8 °F 24.8 °F 80% 29.83 in - ENE 11.5 mph - N/A   Mist
9:00 AM 32.0 °F 23.6 °F 24.8 °F 75% 29.83 in - ENE 10.4 mph - N/A   Mist
9:30 AM 33.8 °F 25.8 °F 24.8 °F 70% 29.83 in 3.1 mi East 10.4 mph - N/A   Unknown
10:04 AM 35.6 °F 25.9 °F 23.0 °F 60% 29.83 in 5.0 mi East 16.1 mph - N/A   Unknown
10:30 AM 35.6 °F 25.5 °F 23.0 °F 60% 29.83 in 5.6 mi East 17.3 mph - N/A   Unknown
11:00 AM 37.4 °F 27.2 °F 23.0 °F 56% 29.83 in 6.2 mi East 19.6 mph - N/A   Partly Cloudy
11:30 AM 39.2 °F 29.6 °F 19.4 °F 45% 29.83 in 6.2 mi East 19.6 mph - N/A   Partly Cloudy
12:00 PM 39.2 °F 29.3 °F 19.4 °F 45% 29.83 in 6.2 mi East 20.7 mph - N/A   Partly Cloudy
12:30 PM 41.0 °F 31.9 °F 21.2 °F 45% 29.83 in 6.2 mi East 19.6 mph - N/A   Scattered Clouds
1:00 PM 41.0 °F 31.9 °F 21.2 °F 45% 29.83 in 6.2 mi East 19.6 mph - N/A   Partly Cloudy
1:30 PM 41.0 °F 31.1 °F 19.4 °F 42% 29.80 in 6.2 mi East 23.0 mph - N/A   Partly Cloudy
2:00 PM 42 °F - 20 °F 28% 29.82 in 7 mi ENE 19.6 mph - -   Scattered Clouds
2:00 PM 42.8 °F 34.5 °F 19.4 °F 39% 29.80 in 6.2 mi ENE 18.4 mph - N/A   Partly Cloudy
2:30 PM 44.6 °F 36.4 °F 21.2 °F 39% 29.80 in 6.2 mi East 20.7 mph - N/A   Partly Cloudy
3:00 PM 44.6 °F 36.6 °F 19.4 °F 37% 29.77 in - East 19.6 mph - N/A   Clear
3:30 PM 44.6 °F 36.4 °F 19.4 °F 37% 29.77 in - ENE 20.7 mph - N/A   Clear
4:00 PM 44.6 °F 37.2 °F 19.4 °F 37% 29.77 in - ENE 17.3 mph 29.9 mph N/A   Clear
4:30 PM 44.6 °F 37.2 °F 17.6 °F 34% 29.77 in - East 17.3 mph - N/A   Clear
5:00 PM 44.6 °F 36.6 °F 17.6 °F 34% 29.77 in - East 19.6 mph - N/A   Clear
5:30 PM 44.6 °F 36.9 °F 15.8 °F 31% 29.77 in - ENE 18.4 mph - N/A   Clear
6:00 PM 44.6 °F 36.4 °F 15.8 °F 31% 29.74 in - ENE 20.7 mph - N/A   Clear
6:30 PM 44.6 °F 36.6 °F 17.6 °F 34% 29.74 in - ENE 19.6 mph - N/A   Clear
7:00 PM 44.6 °F 37.2 °F 15.8 °F 31% 29.74 in - ENE 17.3 mph - N/A   Clear
7:30 PM 44.6 °F 37.2 °F 17.6 °F 34% 29.77 in - ENE 17.3 mph - N/A   Clear
8:00 PM 43 °F - 17 °F 22% 29.78 in 12 mi ENE 13.8 mph - -   Clear
8:00 PM 42.8 °F 35.8 °F 15.8 °F 34% 29.77 in - ENE 13.8 mph - N/A   Clear
8:30 PM 42.8 °F 35.8 °F 17.6 °F 36% 29.77 in - ENE 13.8 mph - N/A   Clear
9:00 PM 41.0 °F 33.9 °F 17.6 °F 39% 29.77 in - ENE 12.7 mph - N/A   Clear
9:30 PM 41.0 °F 34.3 °F 19.4 °F 42% 29.77 in - ENE 11.5 mph - N/A   Clear
10:00 PM 39.2 °F 32.0 °F 19.4 °F 45% 29.77 in - ENE 11.5 mph - N/A   Clear
11:00 PM 37.4 °F 29.8 °F 17.6 °F 45% 29.80 in - ENE 11.5 mph - N/A   Clear